FW3284 Weather Reports


Display with metric or nautical units.
time (UTC)temp
F
wind
direction
speed
MPH
gust
MPH
rain 1hr
in
rain 24hr
in
rain mn
in
humidity
%
barometer
mb
20260506011517 44 23 0.0 2.0 0.01 0.05 0.05 92 1011.0
20260506010055 44 51 0.0 5.0 0.02 0.05 0.05 92 1010.8
20260506004541 44 34 0.0 11.0 0.02 0.05 0.05 92 1010.5
20260506003018 44 27 6.0 11.0 0.02 0.04 0.04 91 1010.3
20260506001606 44 29 8.0 13.0 0.02 0.04 0.04 90 1010.1
20260506000051 44 22 1.0 11.0 0.01 0.03 0.03 91 1009.9
20260505234522 44 39 9.0 17.0 0.02 0.03 0.03 89 1009.8
20260505233101 44 30 0.0 3.0 0.01 0.02 0.02 92 1009.7
20260505231538 45 32 0.0 10.0 0.01 0.02 0.02 93 1009.4
20260505230031 45 6 0.0 2.0 0.01 0.02 0.02 92 1009.4
20260505224557 45 42 0.0 12.0 0.00 0.01 0.01 92 1009.6
20260505223042 45 37 0.0 2.0 0.00 0.01 0.01 92 1009.4
20260505221519 46 36 0.0 6.0 0.00 0.01 0.01 91 1009.0
20260505220107 46 1 1.0 9.0 0.00 0.01 0.01 90 1009.3
20260505214544 47 49 5.0 10.0 0.00 0.01 0.01 88 1009.1
20260505213013 47 354 0.0 11.0 0.00 0.01 0.01 89 1009.0
20260505211631 47 15 0.0 7.0 0.00 0.01 0.01 88 1008.8
20260505210038 48 34 9.0 16.0 0.00 0.01 0.01 84 1008.7
20260505204508 48 28 0.0 15.0 0.00 0.01 0.01 82 1009.1
20260505203047 48 14 0.0 13.0 0.00 0.01 0.01 83 1008.7
20260505201536 48 35 11.0 16.0 0.00 0.01 0.01 82 1008.4
20260505200015 48 27 10.0 16.0 0.00 0.01 0.01 82 1008.6
20260505194549 49 18 4.0 11.0 0.00 0.01 0.01 81 1008.7
20260505193032 49 18 9.0 16.0 0.00 0.01 0.01 78 1008.7
20260505191513 50 12 8.0 16.0 0.00 0.01 0.01 80 1008.3
20260505190106 50 28 11.0 16.0 0.00 0.01 0.01 83 1008.4
20260505184539 50 34 7.0 16.0 0.00 0.01 0.01 83 1008.3
20260505183014 50 34 12.0 17.0 0.00 0.01 0.01 82 1008.1
20260505181606 51 34 11.0 16.0 0.00 0.01 0.01 81 1008.4
20260505180025 51 6 12.0 16.0 0.00 0.01 0.01 81 1008.3
20260505174549 52 37 1.0 6.0 0.00 0.01 0.01 83 1008.3
20260505173027 51 37 8.0 14.0 0.00 0.01 0.01 82 1008.4
20260505171517 52 49 8.0 16.0 0.00 0.01 0.01 81 1008.2
20260505170043 52 79 0.0 5.0 0.00 0.01 0.01 80 1007.9
20260505164527 52 36 9.0 15.0 0.00 0.01 0.01 81 1007.6
20260505163010 52 27 0.0 13.0 0.00 0.01 0.01 80 1007.9
20260505161552 52 359 9.0 15.0 0.00 0.01 0.01 81 1008.0
20260505153049 53 20 0.0 16.0 0.00 0.01 0.01 82 1007.5
20260505151534 53 31 12.0 16.0 0.00 0.01 0.01 80 1006.9
20260505124515 52 78 6.0 11.0 0.00 0.01 0.01 83 1006.3
20260505123059 52 79 6.0 14.0 0.00 0.01 0.01 84 1005.9
20260505123001 52 120 6.0 14.0 0.00 0.01 0.01 84 1005.9
20260505121535 52 43 6.0 12.0 0.00 0.01 0.01 83 1006.0
20260505120015 52 39 9.0 15.0 0.00 0.01 0.01 83 1005.9
20260505114547 53 81 3.0 14.0 0.00 0.01 0.01 83 1005.6
20260505113034 53 53 6.0 15.0 0.00 0.01 0.01 83 1005.2
20260505111511 54 50 6.0 16.0 0.00 0.01 0.01 81 1005.2
20260505110107 56 51 10.0 16.0 0.00 0.01 0.01 81 1005.2
20260505101547 62 337 0.0 0.0 0.00 0.01 0.01 82 1004.9
20260505100025 63 285 0.0 0.0 0.00 0.01 0.01 81 1005.2
20260505094507 61 286 0.0 1.0 0.00 0.01 0.01 87 1004.8
20260505093041 61 306 0.0 0.0 0.01 0.01 0.01 86 1004.0
20260505091524 61 238 3.0 8.0 0.01 0.01 0.01 86 1003.3
20260505090056 61 188 0.0 7.0 0.01 0.01 0.01 88 1002.4
20260505084537 61 210 3.0 13.0 0.01 0.01 0.01 87 1002.5
20260505083019 62 172 6.0 13.0 0.00 0.00 0.00 83 1003.3
20260505081541 64 231 4.0 14.0 0.00 0.00 0.00 75 1004.1
20260505080021 65 212 5.0 10.0 0.00 0.00 0.00 73 1003.9
20260505074548 64 262 0.0 3.0 0.00 0.00 0.00 74 1004.0
20260505073025 64 155 0.0 1.0 0.00 0.00 0.00 74 1004.0
20260505071507 64 145 0.0 4.0 0.00 0.00 0.00 72 1003.9
20260505070031 64 214 1.0 8.0 0.00 0.00 0.00 72 1003.7
20260505064512 64 170 0.0 6.0 0.00 0.00 0.00 72 1003.7
20260505063049 64 203 1.0 9.0 0.00 0.00 0.00 73 1004.0
20260505061531 64 161 0.0 7.0 0.00 0.00 0.00 72 1004.0
20260505060057 64 140 0.0 4.0 0.00 0.00 0.00 72 1004.0
20260505054548 64 183 1.0 7.0 0.00 0.00 0.00 71 1004.1
20260505053025 65 160 0.0 3.0 0.00 0.00 0.00 70 1004.2
20260505051513 65 131 1.0 6.0 0.00 0.00 0.00 70 1004.3
20260505041509 67 228 1.0 7.0 0.00 0.00 0.00 66 1004.2
20260505040050 67 168 1.0 10.0 0.00 0.00 0.00 66 1004.4
20260505034533 67 285 0.0 5.0 0.00 0.00 0.00 65 1004.8
20260505033014 68 166 2.0 8.0 0.00 0.00 0.00 64 1004.8
20260505031552 68 169 1.0 5.0 0.00 0.00 0.00 64 1004.9
20260505030044 69 193 1.0 11.0 0.00 0.00 0.00 63 1004.9
20260505024517 69 189 0.0 10.0 0.00 0.00 0.00 62 1004.9
20260505023058 69 319 0.0 5.0 0.00 0.00 0.00 62 1004.6
20260505021541 69 169 0.0 8.0 0.00 0.00 0.00 61 1004.3
20260505020023 70 162 0.0 4.0 0.00 0.00 0.00 59 1004.2
20260505014518 71 256 0.0 4.0 0.00 0.00 0.00 57 1003.9
20260505013055 72 195 0.0 7.0 0.00 0.00 0.00 56 1003.7